{"data":{"norad_id":56806,"intl_designator":"2023-078AR","name":"STARLINK-6072","alt_names":[],"object_type":"PAYLOAD","status":"ACTIVE","operator":null,"country":"US","launch_date":"2023-05-31","launch_site_code":"AFWTR","launch_vehicle":null,"mission":null,"orbit_class":"UNKNOWN","rcs_meters":null,"size_class":null,"mass_kg":null,"dimensions":null,"purposes":["comms"],"wikipedia_slug":null,"has_3d_model":false,"image_url":null,"decayed_at":null,"tle_current":{"epoch":"2026-05-25T03:39:06.203232Z","epoch_age_seconds":55823,"freshness":"FRESH","line1":"1 56806U 23078AR  26145.15215513  .00000468  00000+0  46976-4 0  9999","line2":"2 56806  69.9989 111.5125 0003241 264.9198  95.1591 14.98331397165091","mean_motion":14.98331397,"eccentricity":0.0003241,"inclination_deg":69.9989,"raan_deg":111.5125,"arg_perigee_deg":264.9198,"mean_anomaly_deg":95.1591,"bstar":4.6976e-5,"rev_number":16509,"period_min":96.106909518362,"perigee_km":569.7990147247,"apogee_km":574.30412695632,"semimajor_km":6950.1885708405,"source":"CELESTRAK","updated_at":"2026-05-25T13:38:18.159331Z"}}}